Weather History for MMLO - November, 2012

Change the Weather History Date:

Sunday, November 11, 2012

  Actual Average Record
Temperature  
Mean Temperature 65 °F -  
Max Temperature 82 °F 77 °F 87 °F (2004)
Min Temperature 48 °F 47 °F 39 °F (2011)
Growing Degree Days 15 (Base 50)    
Moisture  
Dew Point 44 °F    
Average Humidity 52    
Maximum Humidity 100    
Minimum Humidity 21    
Precipitation  
Precipitation 0.00 in - - ()
Sea Level Pressure  
Sea Level Pressure 30.11 in    
Wind  
Wind Speed 2 mph ()    
Max Wind Speed 9 mph    
Max Gust Speed -    
Visibility 8.7 miles    
Events      
Averages and records for this station are not official NWS values.
T = Trace of Precipitation, MM = Missing Value Source: Averaged Metar Reports

Daily Weather History Graph

Daily Weather History Graph

Search for Another Location

Airport or City:

Trip Planner

Search our weather history database for the weather conditions in past years. The results will help you decide how hot, cold, wet, or windy it might be!

Date:

Astronomy

Nov. 11, 2012 Rise Set
Actual Time 6:54 AM CST 6:05 PM CST
Civil Twilight 6:30 AM CST 6:28 PM CST
Nautical Twilight 6:04 AM CST 6:55 PM CST
Astronomical Twilight 5:37 AM CST 7:21 PM CST
Moon 4:25 AM CST (11/11) 4:18 PM CST (11/11)
Length of Visible Light 11h 57m
Length of Day
11h 11m
Waning Crescent, 7% of the Moon is Illuminated
Nov 11
Waning Crescent
Nov 13
New
Nov 20
First Quarter
Nov 28
Full
Dec 6
Last Quarter

Hourly Weather History & Observations

Time (CST) Temp. Dew Point Humidity Pressure Visibility Wind Dir Wind Speed Gust Speed Precip Events Conditions
12:50 AM 53.6 °F 41.0 °F 62% 30.20 in 8.0 mi Calm Calm - N/A   Clear
1:50 AM 53.6 °F 41.0 °F 62% 30.22 in 8.0 mi Calm Calm - N/A   Clear
3:46 AM 51.8 °F 41.0 °F 67% 30.18 in 8.0 mi Calm Calm - N/A   Clear
4:50 AM 50.0 °F 39.2 °F 66% 30.18 in 8.0 mi Calm Calm - N/A   Clear
5:50 AM 50.0 °F 39.2 °F 66% 29.92 in 8.0 mi Calm Calm - N/A   Clear
6:51 AM 48.2 °F 39.2 °F 71% 30.22 in 7.0 mi Calm Calm - N/A   Partly Cloudy
7:42 AM 51.8 °F 46.4 °F 82% 30.27 in 8.0 mi Calm Calm - N/A   Partly Cloudy
8:45 AM 62.6 °F 46.4 °F 55% 29.99 in 9.0 mi Calm Calm - N/A   Clear
9:44 AM 69.8 °F 46.4 °F 43% 30.30 in 9.0 mi Calm Calm - N/A   Partly Cloudy
10:41 AM 73.4 °F 48.2 °F 41% 30.27 in 10.0 mi SW 4.6 mph - N/A   Scattered Clouds
11:41 AM 75.2 °F 46.4 °F 36% 29.92 in 10.0 mi SW 3.5 mph - N/A   Mostly Cloudy
12:41 PM 78.8 °F 46.4 °F 32% 30.24 in 10.0 mi SW 9.2 mph - N/A   Mostly Cloudy
1:44 PM 82.4 °F 46.4 °F 28% 30.18 in 10.0 mi West 9.2 mph - N/A   Mostly Cloudy
2:42 PM 82.4 °F 44.6 °F 26% 29.75 in 10.0 mi SSW 9.2 mph - N/A   Mostly Cloudy
3:48 PM 82.4 °F 42.8 °F 25% 30.15 in 10.0 mi Calm Calm - N/A   Mostly Cloudy
4:44 PM 82.4 °F 42.8 °F 25% 30.12 in 10.0 mi Calm Calm - N/A   Scattered Clouds
5:49 PM 75.2 °F 32.0 °F 21% 29.81 in 10.0 mi Calm Calm - N/A   Scattered Clouds
6:52 PM 68.0 °F 44.6 °F 43% 30.18 in 8.0 mi ESE 3.5 mph - N/A   Scattered Clouds
7:43 PM 64.4 °F 44.6 °F 49% 30.18 in 8.0 mi Calm Calm - N/A   Scattered Clouds
8:43 PM 62.6 °F 62.6 °F 100% 29.83 in 8.0 mi NE 5.8 mph - N/A   Scattered Clouds
9:42 PM 60.8 °F 44.6 °F 55% 30.24 in 8.0 mi NNW 5.8 mph - N/A   Scattered Clouds
10:43 PM 57.2 °F 46.4 °F 67% 30.27 in 8.0 mi NNE 6.9 mph - N/A   Clear
11:41 PM 57.2 °F 46.4 °F 67% 29.91 in 8.0 mi NNE 5.8 mph - N/A   Clear